• In Hungary
  • List of Countries
  • For 7 days
  • Water Temperature
  • Satellite Maps
  • Weather Map
  • News
  • Weather Widgets
  • user-avatar
    Login

    Hourly Weather Botogol

    Today, 19 September, Wednesday

    Time Temperature Precipitation Wind Pressure Humidity
    00:00 -4°C° 0.7 mm 3 mps 622 mmHg 97%
    01:00 -4°C° 0 mm 3 mps 622 mmHg 97%
    02:00 -3°C° 0.4 mm 2 mps 622 mmHg 97%
    03:00 -4°C° 0.4 mm 2 mps 623 mmHg 97%
    04:00 -4°C° 0.4 mm 2 mps 623 mmHg 97%
    05:00 -4°C° 0.2 mm 2 mps 623 mmHg 97%
    06:00 -4°C° 0.2 mm 2 mps 623 mmHg 97%
    07:00 -4°C° 0.2 mm 2 mps 624 mmHg 96%
    08:00 -3°C° 0.2 mm 2 mps 624 mmHg 93%
    09:00 -3°C° 0.2 mm 2 mps 624 mmHg 89%
    10:00 -2°C° 0.2 mm 2 mps 624 mmHg 85%
    11:00 -2°C° 0.2 mm 2 mps 624 mmHg 84%
    12:00 -1°C° 0.2 mm 3 mps 624 mmHg 83%
    13:00 -1°C° 0.2 mm 3 mps 624 mmHg 82%
    14:00 -1°C° 0.1 mm 3 mps 624 mmHg 81%
    15:00 -1°C° 0.1 mm 3 mps 624 mmHg 80%
    16:00 -1°C° 0.1 mm 3 mps 624 mmHg 78%
    17:00 -2°C° 0.1 mm 2 mps 624 mmHg 82%
    18:00 -3°C° 0.1 mm 2 mps 624 mmHg 86%
    19:00 -2°C° 0.1 mm 1 mps 624 mmHg 90%
    20:00 -2°C° 0.2 mm 1 mps 624 mmHg 91%
    21:00 -2°C° 0.2 mm 1 mps 624 mmHg 93%
    22:00 -2°C° 0.2 mm 1 mps 624 mmHg 94%
    23:00 -3°C° 0.2 mm 1 mps 624 mmHg 94%

    Tomorrow, 20 September, Thursday

    Time Temperature Precipitation Wind Pressure Humidity
    00:00 -5°C° 0.2 mm 2 mps 624 mmHg 94%
    01:00 -5°C° 0.2 mm 2 mps 624 mmHg 94%
    02:00 -5°C° 0.2 mm 2 mps 624 mmHg 95%
    03:00 -5°C° 0.2 mm 2 mps 625 mmHg 95%
    04:00 -5°C° 0.2 mm 2 mps 625 mmHg 95%
    05:00 -5°C° 0.1 mm 2 mps 625 mmHg 95%
    06:00 -5°C° 0.1 mm 2 mps 625 mmHg 95%
    07:00 -4°C° 0.1 mm 2 mps 625 mmHg 94%
    08:00 -3°C° 0.2 mm 2 mps 626 mmHg 91%
    09:00 -2°C° 0.2 mm 3 mps 626 mmHg 88%
    10:00 -1°C° 0.2 mm 3 mps 626 mmHg 85%
    11:00 -1°C° 0.2 mm 3 mps 626 mmHg 85%
    12:00 0°C° 0.2 mm 3 mps 626 mmHg 84%
    13:00 0°C° 0.2 mm 3 mps 626 mmHg 84%
    14:00 0°C° 0.1 mm 3 mps 626 mmHg 83%
    15:00 0°C° 0.1 mm 3 mps 626 mmHg 82%
    16:00 0°C° 0.1 mm 3 mps 626 mmHg 80%
    17:00 -1°C° 0 mm 3 mps 626 mmHg 83%
    18:00 -3°C° 0 mm 2 mps 626 mmHg 86%
    19:00 -3°C° 0 mm 1 mps 626 mmHg 88%
    20:00 -4°C° 0 mm 1 mps 626 mmHg 89%
    21:00 -4°C° 0 mm 1 mps 626 mmHg 89%
    22:00 -6°C° 0 mm 1 mps 626 mmHg 89%
    23:00 -6°C° 0 mm 1 mps 626 mmHg 89%

    Day after tomorrow, 21 September, Friday

    Time Temperature Precipitation Wind Pressure Humidity
    00:00 -7°C° 0 mm 1 mps 626 mmHg 89%
    01:00 -7°C° 0 mm 1 mps 625 mmHg 88%
    02:00 -7°C° 0 mm 1 mps 625 mmHg 87%
    03:00 -7°C° 0 mm 1 mps 625 mmHg 85%
    04:00 -7°C° 0 mm 1 mps 625 mmHg 83%
    05:00 -7°C° 0 mm 1 mps 625 mmHg 80%
    06:00 -7°C° 0 mm 1 mps 625 mmHg 78%
    07:00 -6°C° 0 mm 1 mps 625 mmHg 75%
    08:00 -3°C° 0 mm 1 mps 626 mmHg 72%
    09:00 0°C° 0 mm 1 mps 626 mmHg 69%
    10:00 +2°C° 0 mm 1 mps 627 mmHg 66%
    11:00 +3°C° 0 mm 1 mps 627 mmHg 68%
    12:00 +4°C° 0 mm 1 mps 627 mmHg 71%
    13:00 +5°C° 0 mm 1 mps 626 mmHg 74%
    14:00 +5°C° 0 mm 1 mps 626 mmHg 75%
    15:00 +5°C° 0 mm 1 mps 626 mmHg 75%
    16:00 +5°C° 0 mm 1 mps 626 mmHg 75%
    17:00 +3°C° 0 mm 1 mps 626 mmHg 75%
    18:00 +1°C° 0 mm 1 mps 625 mmHg 75%
    19:00 -1°C° 0 mm 1 mps 625 mmHg 75%
    20:00 -1°C° 0 mm 1 mps 625 mmHg 73%
    21:00 -2°C° 0 mm 1 mps 625 mmHg 72%
    22:00 -2°C° 0 mm 1 mps 626 mmHg 70%
    23:00 -2°C° 0 mm 1 mps 626 mmHg 70%

    22 September, Saturday

    Time Temperature Precipitation Wind Pressure Humidity
    00:00 -2°C° 0 mm 1 mps 625 mmHg 70%
    01:00 -2°C° 0 mm 1 mps 625 mmHg 70%
    02:00 -3°C° 0 mm 1 mps 625 mmHg 69%
    03:00 -3°C° 0 mm 1 mps 625 mmHg 68%
    04:00 -3°C° 0 mm 1 mps 625 mmHg 67%
    05:00 -2°C° 0 mm 1 mps 625 mmHg 66%
    06:00 -2°C° 0 mm 1 mps 626 mmHg 65%
    07:00 -2°C° 0 mm 1 mps 626 mmHg 63%
    08:00 +1°C° 0 mm 1 mps 626 mmHg 67%
    09:00 +3°C° 0 mm 1 mps 627 mmHg 71%
    10:00 +5°C° 0 mm 1 mps 627 mmHg 75%
    11:00 +6°C° 0 mm 1 mps 627 mmHg 75%
    12:00 +7°C° 0 mm 1 mps 627 mmHg 75%
    13:00 +8°C° 0 mm 1 mps 627 mmHg 74%
    14:00 +8°C° 0 mm 1 mps 627 mmHg 72%
    15:00 +8°C° 0 mm 1 mps 627 mmHg 69%
    16:00 +7°C° 0 mm 0 mps 627 mmHg 66%
    17:00 +6°C° 0 mm 1 mps 626 mmHg 66%
    18:00 +4°C° 0 mm 1 mps 626 mmHg 65%
    19:00 +2°C° 0 mm 1 mps 625 mmHg 65%
    20:00 +1°C° 0 mm 1 mps 625 mmHg 64%
    21:00 +1°C° 0 mm 1 mps 625 mmHg 63%
    22:00 -1°C° 0 mm 2 mps 625 mmHg 62%
    23:00 -1°C° 0 mm 2 mps 625 mmHg 61%

    23 September, Sunday

    Time Temperature Precipitation Wind Pressure Humidity
    00:00 -2°C° 0 mm 2 mps 625 mmHg 61%
    01:00 -2°C° 0 mm 2 mps 625 mmHg 61%
    02:00 -2°C° 0 mm 2 mps 625 mmHg 61%
    03:00 -2°C° 0 mm 2 mps 625 mmHg 60%
    04:00 -2°C° 0 mm 2 mps 624 mmHg 60%
    05:00 -2°C° 0 mm 2 mps 625 mmHg 59%
    06:00 -1°C° 0 mm 2 mps 625 mmHg 58%
    07:00 -1°C° 0 mm 2 mps 625 mmHg 57%
    08:00 +2°C° 0 mm 2 mps 625 mmHg 61%
    09:00 +4°C° 0 mm 2 mps 625 mmHg 64%
    10:00 +7°C° 0 mm 2 mps 626 mmHg 68%
    11:00 +8°C° 0 mm 2 mps 626 mmHg 67%
    12:00 +9°C° 0 mm 2 mps 625 mmHg 66%
    13:00 +10°C° 0 mm 2 mps 625 mmHg 65%
    14:00 +11°C° 0 mm 1 mps 625 mmHg 64%
    15:00 +10°C° 0 mm 1 mps 625 mmHg 62%
    16:00 +10°C° 0 mm 1 mps 625 mmHg 61%
    17:00 +8°C° 0 mm 1 mps 624 mmHg 62%
    18:00 +6°C° 0 mm 1 mps 623 mmHg 63%
    19:00 +4°C° 0 mm 1 mps 623 mmHg 64%
    20:00 +4°C° 0 mm 1 mps 623 mmHg 63%
    21:00 +3°C° 0 mm 1 mps 623 mmHg 63%
    22:00 +3°C° 0 mm 1 mps 623 mmHg 62%
    23:00 +3°C° 0 mm 1 mps 623 mmHg 61%

    24 September, Monday

    Time Temperature Precipitation Wind Pressure Humidity
    00:00 +3°C° 0 mm 1 mps 622 mmHg 61%
    01:00 +3°C° 0 mm 1 mps 622 mmHg 60%
    02:00 +2°C° 0 mm 1 mps 622 mmHg 60%
    03:00 +2°C° 0 mm 1 mps 622 mmHg 59%
    04:00 +2°C° 0 mm 1 mps 622 mmHg 58%
    05:00 +3°C° 0 mm 1 mps 622 mmHg 58%
    06:00 +3°C° 0 mm 1 mps 622 mmHg 58%
    07:00 +3°C° 0 mm 1 mps 622 mmHg 57%
    08:00 +5°C° 0 mm 1 mps 623 mmHg 58%
    09:00 +7°C° 0 mm 1 mps 623 mmHg 59%
    10:00 +10°C° 0 mm 1 mps 624 mmHg 59%
    11:00 +10°C° 0 mm 1 mps 624 mmHg 58%
    12:00 +11°C° 0 mm 1 mps 623 mmHg 57%
    13:00 +12°C° 0 mm 1 mps 623 mmHg 55%
    14:00 +12°C° 0 mm 1 mps 623 mmHg 57%
    15:00 +12°C° 0 mm 1 mps 623 mmHg 58%
    16:00 +11°C° 0 mm 1 mps 623 mmHg 60%
    17:00 +9°C° 0 mm 1 mps 623 mmHg 64%
    18:00 +6°C° 0 mm 0 mps 622 mmHg 68%
    19:00 +4°C° 0 mm 0 mps 621 mmHg 73%
    20:00 +5°C° 0 mm 1 mps 621 mmHg 72%
    21:00 +4°C° 0 mm 1 mps 621 mmHg 71%
    22:00 +4°C° 0 mm 1 mps 621 mmHg 70%
    23:00 +4°C° 0 mm 1 mps 621 mmHg 69%
    Show more